Home > Time Zones > World Clock > Weather > Belgium > Spa > Past weeks

Flag for Belgium Weather past 2 weeks in Spa, Belgium

Now
63 °F

Drizzle. Dense fog.


Feels Like: 63 °F
Forecast: 59 / 78 °F
Wind: 5 mph from North

Location: Spa / La Sauveniere

Current Time: Jul 22, 2014 at 9:56:29 AM

Latest Report: Jul 22, 2014 at 9:00 AM


Visibility: 0 mi

Pressure: 30.04 "Hg

Humidity: 100%

Dew point: 63 °F

Location of SpaLocation

Historic Weather in Spa — Graph

°F

Spa temperature yesterday

Maximum temperature yesterday: 64 °F (at 12:00 AM)
Minimum temperature yesterday: 60 °F (at 11:00 PM)
Average temperature yesterday: 62 °F

Past Weeks' High & Low Weather Summary

 TemperatureHumidityPressure
High87 °F (Jul 18, 6:00 PM)100% (Jul 8, 5:00 AM)30.22 "Hg (Jul 8, 5:00 AM)
Low49 °F (Jul 9, 10:00 AM)32% (Jul 18, 4:00 PM)29.74 "Hg (Jul 9, 7:00 PM)
Average64 °F81%29.97 "Hg
* Reported Jul 7 8:00 AM — Jul 22 8:00 AM, Spa, Weather by CustomWeather, © 2014

Note: Actual official high and low records may vary slightly from our data, if they occured in-between our weather recording intervals... More about our weather records

Advertising

Spa weather history for previous 24 hours

 ConditionsComfort  
Time TempWeatherWind HumidityBarometerVisibility
8:00 AM
Jul 22
63 °FDrizzle. Dense fog.3 mph100%30.03 "Hg0 mi
7:00 AM63 °FDrizzle. Dense fog.2 mph100%30.02 "Hg0 mi
6:00 AM62 °FDrizzle. Dense fog.2 mph100%30.01 "Hg0 mi
5:00 AM62 °FLight rain. Dense fog.3 mph100%30.01 "Hg0 mi
3:00 AM62 °FDrizzle. Dense fog.3 mph100%30.01 "Hg0 mi
2:00 AM61 °FDrizzle. Dense fog.3 mph100%30.02 "Hg0 mi
1:00 AM61 °FDrizzle. Dense fog.3 mph100%30.01 "Hg0 mi
12:00 AM61 °FDrizzle. Dense fog.3 mph100%30.01 "Hg0 mi
11:00 PM
Jul 21
60 °FDrizzle. Dense fog.3 mph100%30.01 "Hg0 mi
10:00 PM61 °FDrizzle. Dense fog.5 mph99%30.00 "Hg0 mi
9:00 PM61 °FDrizzle. Dense fog.5 mph99%29.99 "Hg0 mi
8:00 PM61 °FLight rain. Dense fog.5 mph99%29.99 "Hg0 mi
7:00 PM61 °FLight rain. Dense fog.6 mph99%29.98 "Hg0 mi
6:00 PM62 °FRain. Low clouds.5 mph98%29.98 "Hg1 mi
5:00 PM62 °FLight rain. Low clouds.5 mph98%29.96 "Hg1 mi
4:00 PM62 °FLight rain. Low clouds.3 mph98%29.96 "Hg1 mi
3:00 PM62 °FDrizzle. Dense fog.3 mph98%29.96 "Hg1 mi
2:00 PM61 °FLight rain. Dense fog.3 mph98%29.96 "Hg0 mi
1:00 PM61 °FDrizzle. Dense fog.3 mph100%29.95 "Hg0 mi
12:00 PM61 °FDrizzle. Dense fog.3 mph99%29.94 "Hg0 mi
11:00 AM61 °FDrizzle. Dense fog.3 mph100%29.93 "Hg0 mi
10:00 AM61 °FDense fog.3 mph100%29.92 "Hg0 mi
9:00 AM62 °FDrizzle. Dense fog.3 mph100%29.90 "Hg0 mi
Weather by CustomWeather, © 2014

See weather overviewHow to use our weather pages